Location: Fours
(44.3167°N, 6.7000°E)
Time: 20:54:29
(UTC+00:00)

Cosmos 2219 - Pass Details

Date: 16 October 2021
Orbit: 835 x 858 km, 71.1° (Epoch: 29 November)

Event Time Altitude Azimuth Distance (km) Brightness Sun altitude
Rises 17:04:37 0° 335° (NNW) 3,395 6.6 -3.9°
Reaches altitude 10° 17:07:04 10° 337° (NNW) 2,456 5.8 -4.3°
Maximum altitude 17:12:43 79° 64° (ENE) 856 3.2 -5.3°
Drops below altitude 10° 17:18:19 10° 151° (SSE) 2,442 5.4 -6.3°
Sets 17:20:45 0° 153° (SSE) 3,374 6.1 -6.7°
